Location: Dumpton Point
(51.3500°N, 1.4433°E)
Time: 07:31:46
(UTC+00:00)

Envisat - Pass Details

Date: 15 December 2021
Orbit: 764 x 766 km, 98.2° (Epoch: 17 January)

Event Time Altitude Azimuth Distance (km) Brightness Sun altitude
Rises 06:59:43 0° 3° (N) 3,246 6.0 -7.8°
Reaches altitude 10° 07:02:59 10° 341° (NNW) 2,315 5.1 -7.3°
Maximum altitude 07:05:45 15° 308° (NW) 1,992 4.5 -7.0°
Drops below altitude 10° 07:08:29 10° 275° (W) 2,307 4.9 -6.6°
Sets 07:11:45 0° 253° (WSW) 3,228 5.8 -6.1°
